Regional Weather Roundup
Issued by NWS Mt. Holly, NJ

Home | Current Version | Previous Version | Text Only | Print | Product List | Glossary On
Versions: 1 2 3 4 5 6 7 8 9 10 11 12 13 14 15 16 17 18 19 20 21 22 23 24 25 26 27
000
ASUS41 KPHI 240010
RWRPHI

REGIONAL WEATHER ROUNDUP
NATIONAL WEATHER SERVICE MOUNT HOLLY NJ
800 PM EDT WED APR 23 2014

NOTE:  "FAIR" INDICATES FEW OR NO CLOUDS BELOW 12,000 FEET WITH NO
SIGNIFICANT WEATHER AND/OR OBSTRUCTIONS TO VISIBILITY.

 * = STATION DOES NOT REPORT PRECIPITATION (E.G. RAIN, SNOW, ETC.)
        OR FOG.

NJZ015>026-240100-
SOUTHERN NEW JERSEY

CITY           SKY/WX    TMP DP  RH WIND       PRES   REMARKS
POMONA         CLOUDY    56  34  43 NW23G35   29.74R
6HR MIN TEMP:  56; 6HR MAX TEMP:  61;

RIO GRANDE*    CLEAR     54  37  54 NW16G23   29.79R
MILLVILLE      PTCLDY    53  36  52 W17G28    29.79R
WRIGHTSTOWN    CLOUDY    53  34  48 NW21      29.75R
MOUNT HOLLY    CLOUDY    54  32  43 NW16G25   29.78R
TRENTON        CLOUDY    52  31  44 NW21G37   29.78R
6HR MIN TEMP:  52; 6HR MAX TEMP:  60;


$$
NJZ001>014-240100-
NORTHERN NEW JERSEY

CITY           SKY/WX    TMP DP  RH WIND       PRES   REMARKS
SUSSEX         CLOUDY    45  31  58 NW12G18   29.81R
ANDOVER*         N/A     44  30  57 N10G24    29.81R
MORRISTOWN     MOCLDY    48  30  49 N12G33    29.78R
NEWARK         MOCLDY    50  31  48 NW21G29   29.76R
TETERBORO      CLOUDY    49  30  48 NW13G29   29.75R
CALDWELL       MOCLDY    47  31  53 NW14G28   29.77R
SOMERVILLE     CLOUDY    50  31  48 NW20G31   29.77R
ALLAIRE*       MOCLDY    52  30  43 NW24G32   29.75R
TOMS RIVER*    PTCLDY    52  34  50 N12G22    29.75R

$$
PAZ043-044-047-054-055-060>062-066>071-240100-
EASTERN PENNSYLVANIA

CITY           SKY/WX    TMP DP  RH WIND       PRES   REMARKS
PHILADELPHIA   MOCLDY    56  31  38 W18G25    29.81R
6HR MIN TEMP:  56; 6HR MAX TEMP:  61;

NORTH PHILA    CLOUDY    55  31  39 NW14G22   29.80R
BLUE BELL      CLOUDY    54  32  43 NW10G24   29.79R
DOYLESTOWN     CLOUDY    49  33  54 NW18G32   29.79R
QUAKERTOWN*    CLOUDY    48  32  53 NW12G22   29.82R
POTTSTOWN      CLOUDY    51  32  48 NW21G29   29.82R
LANCASTER      CLOUDY    47  32  56 NW18G31   29.86R
COATESVILLE    MOCLDY    48  32  53 NW22G30   29.83R
READING        CLOUDY    50  31  48 NW22G35   29.85R
6HR MIN TEMP:  50; 6HR MAX TEMP:  59;

ALLENTOWN      CLOUDY    48  30  49 NW13G24   29.83R
6HR MIN TEMP:  48; 6HR MAX TEMP:  57;

MOUNT POCONO   CLOUDY    36  28  73 NW21G38   29.78R WCI  25
6HR MIN TEMP:  36; 6HR MAX TEMP:  46; 6HR PCP: TRACE;

HAZLETON       CLOUDY    41  27  56 NW17G28   29.86R
WILKES BARRE   CLOUDY    41  27  57 NW14G24   29.87R

$$
DEZALL-MDZ008-012-015-019-020-240100-
DELAWARE AND EASTERN MARYLAND

CITY           SKY/WX    TMP DP  RH WIND       PRES   REMARKS
WILMINGTON     PTCLDY    52  34  50 NW22G31   29.83R
6HR MIN TEMP:  52; 6HR MAX TEMP:  61;

DOVER          CLEAR     53  34  48 NW21G29   29.78R
GEORGETOWN     CLEAR     56  36  47 NW10G20   29.81R
6HR MIN TEMP:  56; 6HR MAX TEMP:  61;

EASTON         CLEAR     55  37  50 NW20G26   29.88R
PATUXENT       PTCLDY    56  34  43 NW18      29.87R
OCEAN CITY     CLEAR     55  35  47 NW9G21    29.80R
WALLOPS ISLAND CLEAR     57  37  47 NW13G23   29.83R
CAMBRIDGE      CLEAR     55  34  44 NW13G26   29.85R
SALISBURY      CLEAR     57  35  43 NW18G24   29.83R

$$
PAZ001-021-NYZ056-072-MDZ011-DCZ001-240100-
OTHER NEARBY LOCATIONS

CITY           SKY/WX    TMP DP  RH WIND       PRES   REMARKS
HARRISBURG     PTCLDY    48  30  49 NW29G41   29.89R
STATE COLLEGE  PTCLDY    45  27  49 W12       29.94S
WILLIAMSPORT   PTCLDY    46  26  45 W10       29.89R
BINGHAMTON     MOCLDY    35  31  85 NW10G18   29.85R WCI  27
NEW YORK CITY  MOCLDY    48  30  49 N9G30     29.78R
BALTIMORE      PTCLDY    52  33  48 NW14G22   29.87R
WASHINGTON DC  PTCLDY    55  32  41 NW16G29   29.89R

$$



USA.gov is the U.S. government's official web portal to all federal, state and local government web resources and services.